Weather in Ivanovka

Russia / Rostov Oblast     46°11′29″N   41°40′03″E
temp.,
°C
wind,
m/s
gust,
m/s
humid.,
%
clouds,
%
prec.,
mm/h
press.,
hPa
HPBL,
m
15 may, sat
sat1500:00+17ese348281 0.0 101150
03:00+16ese347671 0.0 101152
06:00+17se118146 0.0 101241
09:00+23nw23712 0.0 1013428
12:00+26nnw22625 0.0 1013850
15:00+28n23615 0.0 10121129
18:00+26nne23735 0.0 1012153
21:00+21n1180100 0.0 101211
16 may, sun
sun1600:00+19nne338645 0.0 101136
03:00+17ene22825 0.0 101120
06:00+17e36765 0.0 1011125
09:00+21e68577 0.0 1010437
12:00+24ese68535 0.0 1009844
15:00+28ese6114650 0.0 10071330
18:00+25e475916 0.0 1006118
21:00+22ese8184059 0.0 1006438
17 may, mon
mon1700:00+18e6155395 0.0 1005394
03:00+17e61554100 0.0 1005350
06:00+16e61566100 0.0 1005330
09:00+21ese6960100 0.0 1006515
12:00+25se34511 0.0 1007931
15:00+27wnw22505 0.0 10071343
18:00+24w4773100 0.0 1007222
21:00+20w4987100 0.0 1009268
18 may, tue
tue1800:00+17w51194100 2.6 1009347
03:00+17w61194100 3.3 1010594
06:00+15w51291100 0.0 1011494
09:00+19w5779100 0.0 1011690
12:00+22w4564100 0.0 10121309
15:00+23w555855 0.1 10111562
18:00+21w4671100 0.1 1012309
21:00+17w33801 0.1 101231
19 may, wed
wed1900:00+15wsw34885 0.0 101257
03:00+14wsw33920 0.0 101342
06:00+15sw23894 0.0 1013103
09:00+20sw23685 0.0 1014564
12:00+24sw345498 0.0 10141235
15:00+25sw3551100 0.0 10131626
18:00+24wnw236610 0.0 1013154
21:00+17n238381 0.9 101324